Location: Bothwell
(41.7170°N, 112.2589°W)
Time: 01:55:54
(UTC+00:00)

Tiros 1 - Pass Details

Date: 16 May 2026
Orbit: 618 x 649 km, 48.4° (Epoch: 6 June)

Event Time Altitude Azimuth Distance (km) Brightness Sun altitude
Rises 12:41:46 0° 296° (WNW) 2,894 10.1 4.9°
Reaches altitude 10° 12:44:08 10° 291° (WNW) 1,983 9.2 5.3°
Maximum altitude 12:48:32 49° 216° (SW) 792 7.4 6.1°
Drops below altitude 10° 12:52:54 10° 142° (SE) 1,970 9.9 6.8°
Sets 12:55:14 0° 137° (SE) 2,873 10.8 7.2°
